sat.trackr.live / text

‹ back to catalog

STARLINK-36763

NORAD 67906 · 2026-036C

PAYLOAD ACTIVE UNKNOWN

§ Identity

Operator
Country
US
Launch date
2026-02-22
Launch site
AFETR
Launch vehicle
Mass (kg)
RCS (m²)

Purposes: comms

External: N2YO · Heavens-Above · Gunter

§ Orbital elements

Epoch: 2026-09-19T06:25:39.830304Z

Period
94.27 min
Inclination
42.9980°
Eccentricity
0.0001299
Mean motion
15.27585258 rev/d
Perigee alt
482.1 km
Apogee alt
483.9 km
Semi-major
6,861.2 km
B*
3.8128e-4
RAAN
232.3661°
Arg perigee
267.8613°
Mean anomaly
92.2090°
Rev number
3,332

§ Raw data

STARLINK-367631 67906U 26036C   26262.26782211  .00010246  00000+0  38128-3 0  99992 67906  42.9980 232.3661 0001299 267.8613  92.2090 15.27585258 33320

JSON: /api/v1/satellites/67906 · /tle

For live sub-satellite position, see the globe view (requires WebGL).

§ Visibility from observer

Set your observer location to see the next 7 days of passes ≥ 10°. The values pass through the URL so the page stays shareable.

No JS? Fill the form by hand. The geolocation button needs JavaScript.